Lapse_Rate
3.0 6.9 7.8 8.7 6.5 6.5 6.5 6.5 6.5 6.5 6.5 7.1 7.4 6.9 6.6 6.9 6.5 6.5 8.7 6.9 6.7 4.9 4.1 4.2 3.6 3.8 4.1 4.6 4.9 4.9 4.8 4.7 4.6 4.5 4.6 4.6 4.6 4.7 4.9 5.2 5.7 5.8 5.8 5.6 5.2 4.9 5.1 5.3 5.4
5.8 8.4 9.1 7.6 6.5 6.5 6.5 6.5 6.5 6.5 6.8 7.4 7.4 7.2 6.8 6.5 8.0 8.2 8.6 7.8 6.9 5.0 5.5 4.7 3.8 4.0 4.2 4.8 5.0 5.0 5.0 4.7 4.6 4.5 4.6 4.6 4.6 4.6 4.9 5.1 5.4 5.5 5.6 5.4 5.1 5.0 5.0 5.5 5.3
5.3 8.5 7.5 6.5 6.5 6.5 6.5 6.5 6.5 6.6 7.3 7.1 6.9 7.6 7.2 6.9 8.2 8.5 9.3 8.9 9.0 8.3 6.4 4.1 3.8 4.1 4.3 4.6 4.8 5.2 4.9 4.7 4.6 4.6 4.6 4.7 4.7 4.7 4.8 5.0 5.1 5.1 5.2 5.1 5.0 4.8 4.7 4.9 5.7
8.6 8.4 7.7 6.5 6.5 6.5 6.5 6.5 6.5 6.5 7.1 7.4 7.3 6.5 7.9 8.6 8.5 9.0 9.6 9.5 9.4 9.1 5.8 3.4 3.8 4.1 4.1 4.5 5.3 5.0 4.6 4.4 4.3 4.4 4.5 4.5 4.6 4.7 4.5 4.7 4.7 4.7 4.7 4.6 4.5 4.4 4.5 5.2 5.8
8.6 7.7 6.5 6.5 6.5 6.5 6.5 6.8 6.9 6.5 6.7 6.9 7.3 6.7 7.2 8.6 9.0 9.4 9.4 9.6 8.7 7.2 5.2 4.5 4.0 4.0 4.0 4.3 5.3 4.5 4.5 4.5 4.3 4.3 4.4 4.5 4.6 4.5 4.5 4.4 4.5 4.2 4.1 4.1 4.2 4.0 4.4 4.8 5.1
7.3 7.3 6.5 6.5 6.5 6.5 6.5 7.1 6.9 6.7 6.9 7.0 6.9 6.8 7.3 8.8 8.9 9.2 9.4 9.1 6.6 6.0 5.3 4.9 4.1 3.7 4.0 4.3 4.5 4.5 4.6 4.4 4.3 4.3 4.4 4.6 4.6 4.5 4.3 4.2 4.2 4.2 4.2 4.1 3.9 3.8 4.3 4.8 5.1
6.7 6.5 6.5 6.5 6.5 6.5 6.5 7.2 6.6 6.6 6.7 6.7 7.6 6.5 5.5 8.4 8.9 9.2 9.1 8.5 7.9 6.1 5.0 5.0 4.8 3.9 3.9 4.1 4.2 4.5 4.4 4.3 4.2 4.2 4.0 4.0 4.1 3.9 3.8 3.7 4.1 4.4 4.5 3.8 3.8 4.0 4.5 5.0 5.5
7.6 6.5 6.5 6.5 6.5 6.5 6.6 6.9 7.3 7.0 6.7 8.0 7.9 6.5 6.7 8.3 8.9 8.6 8.8 7.5 8.0 6.5 5.4 5.8 5.3 5.1 4.4 3.5 3.7 4.0 4.1 4.2 4.2 4.2 4.2 4.2 4.2 4.1 4.2 4.1 4.5 4.5 4.5 4.2 4.2 4.3 4.9 5.1 5.5
8.2 6.5 6.5 6.5 6.5 6.5 6.8 6.5 7.4 7.9 7.3 7.6 7.7 7.6 8.0 8.1 8.3 8.3 7.5 7.2 7.5 7.2 6.6 6.7 6.5 6.1 5.6 4.6 4.0 3.8 4.0 4.2 4.3 4.4 4.5 4.6 5.3 5.7 5.2 4.9 4.6 4.4 4.2 4.1 4.2 4.1 4.7 5.8 6.9
6.7 6.5 6.5 6.5 6.5 6.5 6.6 6.6 7.0 6.9 6.8 6.9 7.3 6.0 6.6 7.8 8.1 8.2 8.0 8.2 8.0 7.5 8.2 7.8 8.2 8.4 7.0 7.1 5.0 5.2 4.9 5.0 5.6 5.2 4.9 7.2 7.1 7.1 5.4 4.5 4.4 4.1 4.0 4.2 4.5 5.3 6.1 6.7 7.3
6.8 6.5 6.5 6.7 7.0 7.0 6.6 6.7 7.4 6.4 6.5 6.9 6.8 7.7 7.6 7.8 8.4 8.1 8.4 8.6 8.2 8.8 8.7 8.5 7.9 8.4 8.6 6.7 7.0 6.7 6.0 6.8 7.2 6.8 5.9 8.2 6.2 6.5 5.0 4.3 4.6 4.3 4.3 5.2 5.6 5.8 7.4 8.6 8.5
6.5 6.8 6.9 6.9 7.3 7.0 6.5 7.1 6.6 6.9 6.9 7.2 6.9 5.8 7.2 8.1 8.3 8.3 8.4 8.7 8.7 8.9 9.1 9.0 8.4 7.7 7.5 7.4 8.4 7.5 7.7 7.8 7.7 7.0 8.3 8.5 7.2 5.9 5.2 4.9 5.1 5.3 6.3 6.5 6.8 7.7 8.1 8.1 7.8
6.5 6.5 7.1 7.4 7.4 7.2 7.2 6.6 6.6 6.9 7.5 6.9 7.6 6.7 6.8 7.1 8.2 8.5 8.8 8.7 8.9 8.8 8.5 8.5 8.5 7.8 7.5 6.7 8.2 7.8 7.8 7.6 8.2 7.7 7.8 7.6 6.9 5.8 5.7 5.5 5.6 5.9 6.3 7.5 7.7 7.9 7.2 6.6 7.1
6.9 6.8 6.8 7.1 7.1 7.2 6.6 6.6 6.7 6.8 7.1 6.8 7.6 7.3 7.5 7.3 8.2 8.3 8.1 8.4 8.6 8.5 8.2 8.6 9.0 7.6 8.4 7.6 6.4 6.3 6.7 6.5 7.3 6.5 7.0 7.0 7.4 5.2 5.6 5.3 5.9 6.2 6.8 7.9 7.2 7.9 6.9 6.7 7.4
7.1 6.5 6.5 6.5 6.8 6.6 7.1 6.5 6.5 7.3 7.3 6.1 7.0 5.4 4.5 7.7 7.9 8.1 8.4 7.9 8.1 8.2 6.7 7.6 7.9 7.7 7.5 7.7 6.7 6.6 7.5 8.5 7.2 6.9 7.4 7.4 7.7 6.4 6.9 6.0 6.1 6.5 6.6 6.8 7.3 7.8 7.9 7.6 7.4
6.5 6.5 6.5 6.5 6.5 6.7 6.7 6.5 6.5 7.4 7.1 6.8 7.2 6.8 5.5 7.4 8.0 7.7 8.0 8.1 7.8 8.1 6.6 7.5 9.0 8.0 7.3 7.0 7.2 7.7 7.9 8.4 7.6 7.9 8.2 8.6 8.7 8.3 6.7 5.9 5.8 6.4 6.4 6.6 7.8 7.7 6.8 6.3 6.2
6.5 6.5 6.5 6.5 6.5 6.5 6.5 6.5 6.5 7.4 6.9 6.8 6.9 4.7 7.6 7.3 7.7 8.3 7.2 6.3 6.1 7.8 7.2 7.8 8.3 8.0 7.4 7.1 7.8 7.7 7.7 8.4 8.3 8.0 8.4 9.0 8.9 9.0 6.6 6.3 5.9 6.5 6.2 6.3 8.2 6.8 6.4 6.2 6.6
6.5 6.5 6.5 6.5 6.5 6.5 6.5 6.5 6.5 7.0 6.9 6.7 6.9 5.0 7.0 6.9 7.5 8.1 5.2 6.4 6.1 7.0 7.3 8.1 7.8 7.7 6.7 7.8 7.6 7.8 7.2 7.9 8.5 8.7 8.6 8.3 8.5 8.5 8.8 6.4 6.6 6.5 6.5 7.3 6.9 6.4 6.6 6.3 6.5
6.5 6.5 6.5 6.5 6.5 6.5 6.5 6.5 6.5 6.6 6.7 6.6 6.7 6.7 6.7 7.7 7.9 7.9 5.1 5.8 4.4 6.8 6.6 8.0 7.0 6.8 6.8 8.1 7.9 7.6 7.6 7.6 7.7 7.9 7.8 8.5 8.0 8.1 8.6 8.0 7.4 7.3 6.9 7.3 6.3 6.2 5.9 6.0 5.4
6.5 6.5 6.5 6.5 6.5 6.5 6.5 6.5 6.5 6.5 6.5 6.8 6.8 6.3 4.1 7.1 7.8 7.3 5.9 5.7 5.8 7.1 7.3 7.1 6.9 6.8 7.5 8.4 8.5 8.5 8.4 8.0 7.5 7.4 7.6 7.7 7.2 7.5 8.5 8.1 7.2 7.8 6.7 6.1 5.7 5.9 5.6 4.9 4.7
6.5 6.5 6.5 6.5 6.5 6.5 6.5 6.5 6.5 6.5 6.6 6.9 7.1 6.8 4.7 7.5 7.1 7.5 5.6 5.7 6.2 6.9 7.2 6.6 6.9 7.1 7.5 8.1 8.0 8.0 7.7 7.0 6.8 5.9 5.8 6.2 7.3 7.7 8.6 8.7 8.1 7.2 6.4 5.8 5.6 6.2 5.5 4.5 5.2
6.5 6.5 6.5 6.5 6.5 6.5 6.5 6.5 6.5 6.5 6.5 6.5 6.7 6.0 6.0 2.0 7.6 7.7 5.8 5.6 6.0 6.5 6.5 6.7 6.5 7.1 7.2 7.0 7.9 7.0 7.4 7.0 6.8 5.5 5.0 5.0 7.0 8.1 8.8 8.8 8.2 7.1 6.7 5.5 5.6 6.6 5.4 4.9 5.3
6.5 6.5 6.5 6.5 6.5 6.5 6.5 6.5 6.5 6.5 6.5 6.5 6.5 6.7 7.4 6.6 7.1 7.9 7.2 5.8 5.7 6.7 6.5 6.0 5.6 5.7 6.7 7.4 7.2 6.7 7.3 7.0 6.7 5.8 4.3 4.1 5.6 7.2 8.4 8.5 8.0 7.0 6.8 5.8 5.5 5.8 6.6 5.9 5.9
6.5 6.5 6.5 6.5 6.5 6.5 6.5 6.5 6.5 6.5 6.5 6.5 6.5 6.7 6.9 7.0 4.6 7.5 6.7 5.2 7.2 6.7 6.8 5.5 5.0 5.1 6.1 7.0 6.6 6.6 6.9 6.3 6.1 4.8 3.9 3.0 4.1 5.3 6.7 8.1 7.7 8.0 6.8 5.8 6.6 6.8 6.7 6.2 6.6
6.5 6.5 6.5 6.5 6.5 6.5 6.5 6.5 6.5 6.5 6.5 6.5 6.5 6.6 6.8 7.0 6.8 6.3 7.2 7.3 7.1 6.1 6.2 5.8 5.3 5.0 5.4 7.0 6.6 7.0 6.4 5.7 4.7 3.9 3.4 3.1 3.3 3.4 4.3 6.6 7.0 7.5 7.7 7.3 7.8 6.5 6.4 7.0 6.7
6.5 6.5 6.5 6.5 6.5 6.5 6.5 6.5 6.5 6.5 6.5 6.6 6.8 6.6 6.9 6.7 5.5 5.1 6.7 7.5 6.8 6.4 6.5 6.6 6.2 5.8 7.1 6.8 7.2 6.9 6.5 5.8 4.6 4.0 4.0 3.5 3.4 2.9 4.3 4.3 5.9 6.9 7.9 8.0 8.1 6.7 6.3 6.5 6.9
6.5 6.5 6.5 6.5 6.5 6.5 6.5 6.5 6.5 6.5 6.5 6.5 6.5 6.6 6.8 6.7 5.9 3.3 6.0 7.0 6.9 6.4 6.5 6.3 7.0 7.5 7.2 7.1 6.9 6.0 5.4 4.5 4.1 4.4 4.1 4.4 4.1 3.5 3.9 4.4 3.9 4.9 5.4 5.8 6.3 5.6 6.6 6.1 5.9
6.5 6.5 6.5 6.5 6.5 6.5 6.5 6.5 6.5 6.5 6.5 6.5 6.5 6.5 6.7 6.9 5.0 5.7 6.6 6.3 6.8 6.8 6.9 6.5 7.1 7.1 6.3 7.2 7.2 6.6 5.4 5.2 4.6 5.2 4.5 4.8 3.8 3.7 2.7 2.5 3.0 3.6 4.2 4.4 4.4 3.9 4.7 4.5 3.8
6.5 6.5 6.5 6.5 6.5 6.5 6.5 6.5 6.5 6.5 6.5 6.5 6.5 6.5 6.7 7.1 6.5 7.2 6.8 6.6 6.2 6.4 6.3 6.6 6.8 7.3 7.2 7.5 7.5 6.4 6.0 5.7 5.6 4.4 4.5 3.5 3.3 2.7 2.5 2.2 2.6 3.0 3.1 3.5 2.7 3.3 3.6 3.5 3.8
6.5 6.5 6.5 6.5 6.5 6.5 6.5 6.5 6.5 6.5 6.5 6.5 6.6 6.4 6.6 7.4 7.2 7.9 6.5 6.5 6.1 5.4 5.7 5.7 6.3 5.8 7.6 7.5 7.6 6.6 5.7 6.2 5.0 4.8 3.9 2.5 3.1 2.9 2.3 2.4 3.3 3.5 3.4 3.0 2.7 3.0 3.6 3.2 3.0
Wind_Speed
14 15 8 7 6 8 16 19 20 21 3 15 11 7 8 12 8 12 17 24 25 21 24 24 22 21 20 20 20 20 20 19 19 20 19 19 19 20 20 20 19 18 17 16 15 15 17 16 14
11 13 6 5 9 13 15 20 19 19 10 13 6 1 5 16 13 17 16 25 24 21 22 23 22 22 21 20 20 19 20 19 19 20 19 19 20 19 18 18 18 18 18 17 17 19 19 16 16
11 11 8 7 13 15 16 23 7 10 13 10 3 1 10 12 17 13 16 26 24 18 24 23 23 22 20 20 20 19 19 19 19 19 19 18 18 18 17 17 18 19 19 19 21 23 19 19 18
6 8 8 13 20 21 22 23 21 14 8 7 3 14 8 12 12 16 19 24 21 20 26 23 23 22 22 21 19 20 19 18 19 19 18 18 18 17 17 17 18 19 21 22 22 21 21 22 24
7 6 12 18 24 24 22 25 16 3 9 8 3 10 12 11 17 19 19 18 20 21 25 23 22 22 22 20 21 20 18 18 18 18 18 17 17 17 17 18 19 20 21 22 23 23 24 25 26
7 9 13 17 24 25 23 25 19 7 7 3 2 4 8 11 20 17 17 16 23 20 23 23 21 21 21 21 22 20 18 18 18 18 17 16 17 18 19 20 20 20 22 23 24 26 26 27 30
15 12 18 23 24 24 23 23 17 9 12 12 8 9 5 14 15 16 17 19 20 21 19 20 20 20 22 22 21 20 19 18 18 18 18 19 19 20 21 20 20 21 23 25 26 27 28 28 28
13 13 24 22 22 26 23 22 15 15 16 15 13 7 18 18 16 15 14 19 18 17 16 17 19 19 18 18 20 19 18 18 17 17 18 19 19 19 21 20 21 24 24 24 25 27 28 29 22
19 15 19 24 23 24 20 2 12 18 17 18 12 8 23 22 19 14 16 17 15 14 15 16 17 19 20 18 17 18 18 17 17 17 20 22 16 17 14 20 22 24 23 24 25 26 25 22 19
18 17 28 23 21 20 25 18 18 17 17 17 10 21 25 18 16 16 15 16 15 16 16 14 13 16 20 19 18 17 17 15 15 16 16 12 18 17 20 19 22 22 22 23 26 27 25 18 14
22 25 23 24 24 20 21 16 26 22 19 22 14 24 24 19 18 16 17 17 17 17 14 15 12 17 17 17 15 15 15 15 15 16 18 16 22 20 17 16 15 16 18 16 15 14 8 9 11
26 27 25 27 25 21 25 21 23 17 21 17 12 30 25 23 19 19 19 18 21 17 18 15 11 10 15 17 14 17 14 16 14 14 15 10 12 15 15 13 14 13 13 14 15 8 17 17 19
29 26 25 25 26 24 23 23 22 22 21 8 19 30 25 21 21 17 16 17 19 18 15 14 12 10 11 11 12 13 10 11 13 13 15 10 9 9 14 14 15 14 14 11 14 13 14 15 15
23 27 26 23 25 25 25 24 19 21 18 9 11 18 17 20 22 21 21 19 18 19 17 15 14 9 10 6 6 7 13 14 10 14 12 7 8 12 11 11 13 15 14 14 14 13 13 12 13
24 26 26 23 24 26 22 27 27 19 21 18 19 13 14 16 16 22 22 20 18 17 19 12 8 10 8 5 7 9 11 10 14 12 14 10 11 16 13 11 10 12 14 14 14 17 15 11 14
23 24 23 24 23 24 24 27 22 24 21 21 20 20 19 20 21 17 20 19 17 19 21 18 12 12 9 6 6 8 10 7 13 13 11 11 12 17 14 11 10 14 13 12 10 10 7 5 5
20 20 26 27 27 21 27 25 24 25 19 22 19 9 18 18 20 16 11 17 15 19 21 19 13 13 9 7 7 8 9 3 11 14 11 7 8 8 15 14 16 17 12 8 8 6 6 5 5
22 26 25 26 25 26 27 24 23 23 22 21 18 16 19 18 19 20 11 17 14 19 19 18 13 12 8 9 5 6 4 5 11 10 11 9 8 5 5 16 16 17 9 4 6 6 6 5 5
23 24 29 24 26 29 26 25 24 23 24 24 19 16 15 23 23 18 12 14 7 17 17 15 13 13 7 7 8 7 5 4 4 10 13 9 10 7 3 12 15 14 8 5 6 5 7 4 6
25 26 27 27 26 25 26 26 28 25 25 26 27 23 15 16 22 19 14 11 13 17 17 15 15 14 10 7 7 7 7 4 5 9 9 12 10 9 6 10 6 6 7 9 7 6 4 4 5
22 24 23 26 27 26 24 26 26 23 22 28 28 25 22 31 27 23 19 15 17 17 16 15 15 15 10 11 7 6 7 5 4 5 4 7 10 10 9 13 9 11 12 6 6 5 8 5 4
21 21 25 25 26 20 26 17 23 26 25 21 20 20 21 18 23 25 25 20 18 18 16 16 16 15 9 8 9 10 7 7 5 4 5 4 9 6 10 11 13 13 12 7 5 8 5 6 4
22 17 22 25 25 25 26 17 19 22 23 23 24 23 28 35 28 29 27 24 20 18 17 15 14 14 11 10 11 8 7 5 6 6 8 6 6 9 6 9 13 10 12 11 7 6 5 5 4
20 19 22 23 20 19 23 19 16 18 26 25 25 20 21 20 18 23 28 26 22 18 18 15 15 15 12 7 10 11 8 10 7 8 6 5 3 3 8 9 11 10 13 9 7 8 5 5 2
21 16 12 15 16 15 21 20 14 25 23 26 29 24 21 18 18 20 19 21 20 22 21 16 17 13 9 10 11 11 10 9 10 10 7 7 4 3 4 5 5 5 13 14 12 7 4 2 2
21 20 12 17 16 16 24 22 16 22 20 28 28 23 21 22 18 19 16 20 22 22 22 20 20 19 17 13 11 7 11 7 8 7 6 5 4 5 7 8 7 7 7 10 11 7 4 4 2
20 19 23 17 19 16 15 19 21 22 23 26 25 24 26 22 18 20 19 19 20 22 23 22 21 19 15 12 9 9 8 9 9 8 8 5 6 7 8 11 8 10 9 9 7 3 3 5 4
16 17 20 14 14 11 16 22 14 18 22 24 25 25 22 22 20 11 16 19 16 18 19 20 20 20 19 15 12 11 10 9 10 7 8 8 7 8 7 7 8 8 9 10 8 5 6 6 4
11 15 12 15 16 11 13 12 8 14 12 23 24 25 23 25 24 24 17 18 17 15 14 18 16 15 18 16 14 13 10 9 9 8 7 8 7 8 8 8 7 7 7 8 7 7 7 7 6
16 21 17 8 20 9 11 4 15 13 10 18 19 18 18 25 24 22 20 19 19 17 15 17 16 17 16 15 14 13 10 10 10 8 8 9 8 9 7 8 8 7 7 7 7 7 7 7 7
Wind_Direction
287 272 253 287 258 246 254 260 254 264 312 61 75 27 23 48 32 100 116 109 120 120 124 123 119 116 113 110 108 107 108 108 104 102 99 97 90 89 88 85 82 80 78 79 81 95 99 92 82
298 288 261 276 260 257 259 247 254 272 85 82 67 306 207 78 100 119 121 121 120 124 127 129 122 120 119 117 112 113 113 112 109 106 104 100 94 92 87 87 87 85 86 83 82 101 101 89 73
273 264 265 249 251 240 260 271 258 327 67 62 38 105 39 105 114 128 132 121 124 133 126 128 124 124 123 120 118 117 115 113 111 109 108 105 102 99 93 91 91 92 92 89 93 100 94 79 73
275 230 239 244 253 250 244 266 286 317 86 85 231 103 101 103 122 126 138 126 134 122 123 128 128 130 124 121 126 122 117 118 120 120 118 115 110 106 99 95 93 94 93 93 96 91 79 75 70
236 263 250 234 240 253 265 267 291 332 320 64 223 125 120 120 112 141 138 132 121 118 127 131 127 128 131 133 132 123 123 124 122 119 116 114 108 101 94 90 92 91 95 96 96 84 77 71 68
229 221 241 243 244 239 244 259 266 183 268 289 178 122 108 124 136 142 135 135 117 125 124 133 128 123 124 125 125 128 124 119 114 111 109 104 99 95 92 89 92 96 97 98 93 85 80 77 77
233 227 239 244 254 256 249 244 247 223 238 241 174 236 77 145 145 143 131 116 121 122 129 133 133 126 122 127 127 128 121 116 117 119 120 120 119 114 111 110 109 106 103 97 96 90 87 83 83
231 242 241 245 261 259 258 245 180 213 248 263 170 156 152 146 149 122 128 112 118 126 128 137 137 137 135 133 130 126 123 125 128 127 128 129 125 118 112 109 113 109 106 105 103 101 98 97 98
240 242 240 239 242 257 268 220 293 255 244 248 202 182 142 124 121 135 113 120 130 136 138 142 149 147 140 135 133 126 128 132 137 146 150 146 138 130 127 116 115 112 112 114 114 113 112 113 110
229 240 237 246 245 246 271 310 249 246 250 248 147 94 125 129 142 156 153 147 147 148 148 150 151 148 146 141 149 141 143 151 162 170 175 184 151 133 116 114 114 119 124 127 130 128 125 126 125
234 242 245 244 245 258 254 240 252 236 239 247 181 136 142 162 158 166 172 156 156 161 150 157 156 151 154 135 154 154 166 170 171 171 185 180 120 120 122 125 124 128 128 129 131 143 167 121 128
247 242 248 255 263 242 247 256 245 195 244 251 254 148 152 162 167 171 180 172 155 171 154 153 161 152 129 154 166 164 177 174 170 191 131 123 117 122 135 142 150 151 152 159 158 138 89 74 67
254 248 250 242 254 260 268 264 245 184 227 263 318 146 155 163 161 179 172 184 156 168 154 154 170 156 148 167 183 173 179 152 147 123 111 98 115 122 138 157 162 153 149 129 99 97 89 84 80
264 261 255 245 248 243 251 259 250 191 206 153 252 133 149 164 173 172 169 187 181 157 152 161 166 162 158 184 109 102 108 114 100 106 108 140 136 131 144 149 145 131 143 119 122 113 101 96 95
268 269 268 255 238 247 245 246 236 223 188 172 203 185 155 180 208 178 174 183 184 150 146 172 181 163 146 136 118 115 123 137 130 114 138 165 176 149 140 128 123 119 105 126 123 104 107 101 86
277 268 252 250 247 240 240 240 218 238 188 212 224 169 171 169 202 193 175 173 184 148 149 164 185 159 160 129 135 133 125 167 114 129 127 163 151 140 136 127 121 120 125 145 130 121 116 116 124
247 252 250 237 246 222 238 236 231 225 199 209 214 181 168 174 190 203 171 161 174 149 149 163 170 159 156 141 157 121 134 184 122 123 131 141 140 162 145 138 137 136 149 171 127 124 122 120 106
233 232 241 248 226 243 227 234 230 223 211 212 204 164 209 178 192 193 137 173 175 149 149 167 158 152 146 152 144 109 137 99 112 129 129 142 141 166 122 136 148 143 153 180 121 119 121 123 138
259 257 248 238 240 227 227 231 220 232 193 212 204 228 244 177 183 182 144 157 160 147 158 157 145 151 145 156 143 142 164 127 126 98 133 158 142 157 168 126 148 153 147 139 118 117 114 96 105
239 247 258 259 255 238 230 213 233 219 195 206 212 203 236 197 170 159 146 153 146 154 158 145 153 156 161 159 157 157 154 147 117 119 139 128 155 161 171 138 164 145 113 117 119 134 121 113 162
247 249 245 250 254 242 229 223 209 226 212 198 213 182 190 261 166 157 144 165 153 160 158 154 159 165 171 155 160 155 127 106 113 127 135 141 154 173 155 152 168 116 120 123 121 134 131 154 214
241 249 249 246 248 253 227 221 206 218 200 213 214 175 177 271 171 163 160 163 165 163 161 160 162 165 168 170 157 144 141 150 155 159 129 139 146 147 152 160 135 127 130 132 143 160 164 149 185
247 234 254 242 247 253 247 219 205 208 205 199 221 203 183 189 181 170 167 166 170 166 164 157 160 159 174 202 142 140 156 148 150 124 130 133 131 154 174 133 130 123 129 139 164 184 178 169 155
252 247 246 246 241 247 253 205 218 214 209 194 216 200 204 198 164 192 173 157 164 160 163 164 167 168 191 183 141 158 164 145 140 140 137 128 129 137 145 151 137 151 139 153 174 171 186 181 184
247 232 225 234 228 241 249 223 194 230 208 194 204 200 202 207 185 173 161 159 158 166 171 168 167 169 194 173 150 185 138 149 140 149 149 143 148 147 143 130 125 153 149 160 160 156 169 167 133
232 219 222 220 221 224 238 224 212 231 212 192 197 197 203 205 153 144 173 173 167 170 168 170 169 168 184 166 164 177 142 145 145 159 149 147 156 143 149 131 143 140 125 144 145 154 160 169 133
235 214 221 223 233 224 213 235 218 224 240 193 190 190 206 183 148 163 185 190 164 169 170 168 170 167 162 164 153 143 143 145 158 172 141 151 143 134 146 151 128 131 131 129 130 133 133 113 108
193 224 218 215 240 204 218 228 202 213 221 189 184 195 204 163 142 160 181 177 176 166 165 166 174 165 162 164 169 158 159 162 157 148 150 141 132 140 140 136 136 141 145 143 128 115 114 115 114
180 214 247 213 252 203 223 218 233 238 229 170 185 191 160 163 157 164 179 169 169 167 157 161 164 167 166 166 167 158 167 161 151 143 141 132 131 141 151 142 146 146 149 144 125 130 132 135 145
168 223 225 240 226 223 236 83 351 1 216 167 184 186 170 150 154 160 159 169 161 159 160 169 170 167 176 165 164 159 162 151 147 155 147 134 145 158 154 145 154 152 151 144 136 146 145 136 138